Regional Weather Roundup
Issued by NWS

Home | Current Version | Previous Version | Graphics & Text | Print | Product List | Glossary On
Versions: 1 2 3 4 5 6 7 8 9 10 11 12 13 14 15 16 17 18 19 20 21 22 23 24 25 26 27 28 29 30 31 32 33 34 35 36 37 38 39 40 41 42 43 44 45 46 47 48 49 50
000
ASUS43 KFSD 020210
RWRSD

WEATHER ROUNDUP FOR SOUTH DAKOTA
NATIONAL WEATHER SERVICE SIOUX FALLS SD
900 PM CDT SAT AUG 01 2015

NOTE: "FAIR" INDICATES FEW OR NO CLOUDS BELOW 12,000 FEET WITH NO
SIGNIFICANT WEATHER AND/OR OBSTRUCTIONS TO VISIBILITY.


SDZ001>005-009-010-012>017-020300-
NORTHWEST AND NORTH CENTRAL SOUTH DAKOTA

CITY           SKY/WX    TMP DP  RH WIND       PRES   REMARKS
BUFFALO          N/A     88  38  17 NW12      29.80R
FAITH            N/A     85  40  20 SE9       29.84F
MOBRIDGE       CLEAR     83  58  42 E8        29.75F
$$

SDZ012>016-024>037-041>051-057-063-072>074-020300-
SOUTHWEST AND SOUTH CENTRAL SOUTH DAKOTA

CITY           SKY/WX    TMP DP  RH WIND       PRES   REMARKS
RAPID CTY ARPT CLEAR     79  59  50 S7        29.91S
PIERRE         CLEAR     79  50  36 N8        29.80S
CUSTER         CLEAR     75  48  38 SE6       30.11S
PHILIP         CLEAR     81  63  54 S8        29.84F
PINE RIDGE     CLEAR     76  65  68 E10       29.96R
WINNER         FAIR      82  58  43 SW12      29.86F
$$

SDZ004>011-016>023-039-040-020300-
NORTHEAST SOUTH DAKOTA

CITY           SKY/WX    TMP DP  RH WIND       PRES   REMARKS
ABERDEEN       CLEAR     81  67  62 CALM      29.73S
WATERTOWN      CLEAR     76  65  68 S9        29.78S
BROOKINGS      CLOUDY    75  63  64 S8        29.82F
SISSETON         N/A     76  68  76 S6        29.71F
$$

SDZ017-020-022-023-036>040-048>070-020300-
SOUTHEAST SOUTH DAKOTA

CITY           SKY/WX    TMP DP  RH WIND       PRES   REMARKS
SIOUX FALLS    PTCLDY    79  64  60 SW10      29.84S
HURON          CLEAR     83  64  52 SW9       29.77S
CHAMBERLAIN    CLEAR     79  62  55 SW8       29.83S
MITCHELL       PTCLDY    82  66  58 SW7       29.80F
YANKTON        CLEAR     81  63  54 S7        29.84S
$$

ABBREVIATIONS USED IN REMARKS
   TC - TEMPERATURE IN CELSIUS
  WCI - WIND CHILL INDEX
   HX - HEAT INDEX
  VSB - VISIBILITY



USA.gov is the U.S. government's official web portal to all federal, state and local government web resources and services.